EW0608 Weather Reports


Display with metric or nautical units.
time (UTC)temp
F
wind
direction
speed
MPH
gust
MPH
rain 1hr
in
rain 24hr
in
rain mn
in
humidity
%
barometer
mb
20260508093022 36 191 0.0 0.0 0.00 0.02 0.00 90 1014.1
20260508091524 37 191 0.0 2.0 0.00 0.02 0.00 90 1014.1
20260508090014 37 191 0.0 0.0 0.00 0.02 0.00 90 1013.9
20260508084508 38 191 0.0 0.0 0.00 0.02 0.00 89 1013.7
20260508083006 38 191 0.0 0.0 0.00 0.02 0.00 89 1013.5
20260508081504 38 191 0.0 1.0 0.00 0.02 0.00 89 1013.4
20260508080101 39 191 0.0 0.0 0.00 0.02 0.00 87 1013.2
20260508074557 40 191 0.0 0.0 0.00 0.02 0.00 86 1013.2
20260508073056 40 191 0.0 1.0 0.00 0.02 0.00 85 1013.4
20260508071554 41 191 1.0 2.0 0.00 0.02 0.00 83 1013.2
20260508070057 42 191 1.0 2.0 0.00 0.02 0.00 81 1013.2
20260508064546 42 190 0.0 1.0 0.00 0.02 0.00 80 1013.2
20260508063042 43 190 0.0 0.0 0.00 0.02 0.00 76 1013.1
20260508061540 44 190 0.0 0.0 0.00 0.02 0.00 74 1013.0
20260508060838 45 190 0.0 0.0 0.00 0.02 0.00 72 1013.1
20260508060353 45 190 0.0 0.0 0.00 0.02 0.00 71 1013.1
20260508060043 45 190 0.0 0.0 0.00 0.02 0.00 72 1013.0
20260508055842 46 190 0.0 0.0 0.00 0.02 0.00 70 1013.1
20260508055355 47 190 0.0 0.0 0.00 0.02 0.00 69 1013.2
20260508054847 48 190 0.0 0.0 0.00 0.00 0.00 67 1012.9
20260508054543 47 190 0.0 0.0 0.00 0.02 0.00 65 1013.0
20260508054338 48 190 0.0 0.0 0.00 0.02 0.00 64 1013.1
20260508053849 48 190 0.0 0.0 0.00 0.02 0.00 63 1013.0
20260508053343 48 190 0.0 0.0 0.00 0.02 0.00 63 1013.1
20260508053059 48 190 0.0 1.0 0.00 0.02 0.00 64 1012.9
20260508052854 49 190 0.0 1.0 0.00 0.02 0.00 63 1013.1
20260508051855 49 190 1.0 2.0 0.00 0.02 0.00 63 1013.0
20260508051548 49 190 0.0 2.0 0.00 0.02 0.00 62 1012.8
20260508051347 49 134 0.0 2.0 0.00 0.02 0.00 63 1013.0
20260508050840 49 134 0.0 3.0 0.00 0.02 0.00 62 1013.0
20260508050352 49 134 1.0 3.0 0.00 0.02 0.00 60 1013.0
20260508050004 49 134 0.0 3.0 0.00 0.02 0.00 63 1012.8
20260508045840 49 134 0.0 3.0 0.00 0.02 0.00 63 1013.0
20260508045412 49 134 1.0 3.0 0.00 0.02 0.00 62 1012.9
20260508044844 49 119 1.0 3.0 0.00 0.02 0.00 63 1012.8
20260508044553 49 198 0.0 3.0 0.00 0.02 0.00 64 1012.7
20260508044337 50 202 0.0 3.0 0.00 0.02 0.00 64 1012.8
20260508043850 50 32 0.0 2.0 0.00 0.02 0.00 64 1012.8
20260508043341 49 32 0.0 2.0 0.00 0.02 0.00 62 1012.7
20260508043018 49 32 0.0 2.0 0.00 0.02 0.00 66 1012.4
20260508042915 49 32 1.0 2.0 0.00 0.02 0.00 66 1012.6
20260508042406 49 32 0.0 2.0 0.00 0.02 0.00 66 1012.5
20260508041858 48 32 0.0 3.0 0.00 0.02 0.00 69 1012.4
20260508041509 48 27 0.0 3.0 0.00 0.02 0.00 71 1012.2
20260508041409 48 279 0.0 3.0 0.00 0.02 0.00 71 1012.3
20260508040839 47 84 0.0 3.0 0.00 0.02 0.00 74 1012.3
20260508040413 47 59 0.0 2.0 0.00 0.02 0.00 76 1012.2
20260508040042 46 59 0.0 2.0 0.00 0.02 0.00 77 1011.9
20260508035840 46 57 0.0 2.0 0.00 0.02 0.02 78 1012.1
20260508035351 46 196 1.0 4.0 0.00 0.02 0.02 80 1012.0
20260508034844 46 29 0.0 4.0 0.00 0.02 0.02 80 1011.9
20260508034544 45 302 1.0 4.0 0.00 0.02 0.02 80 1011.7
20260508034336 46 42 0.0 2.0 0.00 0.02 0.02 80 1011.9
20260508033850 46 42 0.0 2.0 0.00 0.02 0.02 79 1011.8
20260508033342 46 42 0.0 2.0 0.00 0.02 0.02 79 1011.7
20260508033040 46 42 0.0 2.0 0.00 0.02 0.02 79 1011.6
20260508032840 46 42 0.0 2.0 0.00 0.02 0.02 79 1011.8
20260508032353 46 42 0.0 2.0 0.00 0.02 0.02 79 1011.8
20260508031845 47 42 0.0 2.0 0.00 0.02 0.02 78 1011.7
20260508031536 46 42 0.0 2.0 0.00 0.02 0.02 78 1011.5
20260508031336 47 42 0.0 0.0 0.00 0.02 0.02 77 1011.6
20260508030849 47 42 0.0 1.0 0.00 0.02 0.02 76 1011.6
20260508030343 47 42 0.0 1.0 0.00 0.02 0.02 77 1011.6
20260508030100 47 42 0.0 1.0 0.00 0.02 0.02 78 1011.3
20260508025852 47 42 0.0 1.0 0.00 0.02 0.02 78 1011.5
20260508025345 48 42 0.0 1.0 0.00 0.02 0.02 78 1011.4
20260508024858 48 42 0.0 1.0 0.00 0.02 0.02 78 1011.4
20260508024551 47 42 0.0 1.0 0.00 0.02 0.02 77 1011.2
20260508024350 48 42 0.0 0.0 0.00 0.02 0.02 77 1011.3
20260508023844 48 42 0.0 1.0 0.00 0.02 0.02 75 1011.4
20260508023337 48 42 0.0 2.0 0.00 0.02 0.02 73 1011.4
20260508023048 48 42 0.0 2.0 0.00 0.02 0.02 73 1011.1
20260508022345 48 42 0.0 1.0 0.00 0.02 0.02 70 1011.2
20260508021838 49 42 0.0 1.0 0.00 0.02 0.02 69 1011.2
20260508021511 48 42 0.0 1.0 0.00 0.02 0.02 69 1010.9
20260508021411 49 42 0.0 1.0 0.00 0.02 0.02 68 1011.1
20260508020903 49 42 0.0 1.0 0.00 0.02 0.02 67 1011.1
20260508020356 50 42 0.0 0.0 0.00 0.02 0.02 66 1011.0
20260508020005 49 42 0.0 0.0 0.00 0.02 0.02 66 1010.8
20260508015905 50 42 0.0 0.0 0.00 0.02 0.02 66 1011.0
20260508015337 50 42 0.0 1.0 0.00 0.02 0.02 67 1010.9
20260508014851 50 42 0.0 1.0 0.00 0.02 0.02 66 1010.8
20260508014548 50 42 0.0 1.0 0.00 0.02 0.02 65 1010.5
20260508014345 51 42 0.0 0.0 0.00 0.02 0.02 65 1010.8
20260508013838 51 42 0.0 0.0 0.00 0.02 0.02 64 1010.8
20260508013411 52 42 0.0 0.0 0.00 0.02 0.02 64 1010.6
20260508013044 52 42 0.0 0.0 0.00 0.02 0.02 64 1010.4
20260508012842 52 42 0.0 0.0 0.00 0.02 0.02 64 1010.5
20260508012336 53 42 0.0 0.0 0.00 0.02 0.02 62 1010.5
20260508011848 53 42 0.0 0.0 0.00 0.02 0.02 61 1010.4
20260508011503 53 42 0.0 0.0 0.00 0.02 0.02 60 1010.2
20260508011401 54 42 0.0 0.0 0.00 0.02 0.02 60 1010.3
20260508010852 54 42 0.0 0.0 0.00 0.02 0.02 58 1010.2
20260508010346 54 42 0.0 0.0 0.00 0.02 0.02 57 1010.1
20260508010040 54 42 0.0 0.0 0.00 0.02 0.02 57 1009.9
20260508005840 55 42 0.0 0.0 0.00 0.02 0.02 56 1010.0
20260508005354 56 42 0.0 0.0 0.00 0.02 0.02 55 1010.0
20260508004847 56 42 0.0 1.0 0.00 0.02 0.02 53 1009.9
20260508004635 56 42 0.0 2.0 0.00 0.02 0.02 53 1009.6
20260508004435 57 42 0.0 2.0 0.00 0.02 0.02 52 1009.8
20260508003905 57 42 0.0 1.0 0.00 0.02 0.02 51 1009.8
20260508003341 58 41 0.0 0.0 0.00 0.02 0.02 51 1009.7
20260508003054 57 41 0.0 0.0 0.00 0.02 0.02 51 1009.5
20260508002853 58 41 0.0 0.0 0.00 0.02 0.02 50 1009.7
20260508002345 58 41 0.0 1.0 0.00 0.02 0.02 49 1009.6
20260508001858 59 41 0.0 1.0 0.00 0.02 0.02 50 1009.6
20260508001551 58 41 0.0 0.0 0.00 0.02 0.02 49 1009.3
20260508001350 59 41 0.0 1.0 0.00 0.02 0.02 48 1009.5
20260508000902 60 41 0.0 1.0 0.00 0.02 0.02 45 1009.4
20260508000414 60 41 0.0 1.0 0.00 0.02 0.02 44 1009.3
20260508000043 60 41 0.0 1.0 0.00 0.02 0.02 43 1009.0
20260507235842 61 41 0.0 1.0 0.00 0.02 0.02 43 1009.2
20260507235413 61 41 0.0 3.0 0.00 0.02 0.02 39 1009.1
20260507234603 61 46 1.0 4.0 0.00 0.02 0.02 39 1008.8
20260507233056 62 80 0.0 3.0 0.00 0.02 0.02 38 1008.6
20260507231558 63 85 0.0 2.0 0.00 0.02 0.02 38 1008.6
20260507230100 63 333 1.0 5.0 0.00 0.02 0.02 36 1008.4
20260507224556 64 269 2.0 6.0 0.00 0.02 0.02 36 1008.3
20260507223059 64 335 0.0 4.0 0.00 0.02 0.02 36 1008.0
20260507221553 65 342 1.0 5.0 0.00 0.02 0.02 36 1007.8
20260507220054 65 26 2.0 5.0 0.00 0.02 0.02 36 1007.7
20260507214652 65 20 1.0 8.0 0.00 0.02 0.02 34 1007.5
20260507213052 66 59 1.0 5.0 0.00 0.02 0.02 34 1007.3
20260507211552 66 340 0.0 6.0 0.01 0.02 0.02 33 1007.2
20260507210052 68 15 1.0 8.0 0.02 0.02 0.02 32 1007.1
20260507204550 67 194 3.0 11.0 0.02 0.02 0.02 32 1007.1
20260507203841 70 360 2.0 6.0 0.02 0.02 0.02 31 1007.4
20260507203354 69 88 1.0 6.0 0.02 0.02 0.02 34 1007.4
20260507203057 67 138 2.0 6.0 0.02 0.02 0.02 32 1007.2
20260507202847 67 30 4.0 7.0 0.02 0.02 0.02 31 1007.5
20260507202340 68 331 3.0 7.0 0.02 0.02 0.02 31 1007.5
20260507201851 68 336 3.0 8.0 0.01 0.01 0.01 32 1007.6
20260507201544 67 355 1.0 13.0 0.01 0.01 0.01 31 1007.3
20260507201343 68 241 3.0 13.0 0.01 0.01 0.01 31 1007.7
20260507200836 69 184 1.0 7.0 0.00 0.00 0.00 31 1007.4
20260507200350 69 351 1.0 7.0 0.00 0.00 0.00 30 1007.6
20260507200047 68 15 3.0 7.0 0.00 0.00 0.00 30 1007.4
20260507195839 68 333 4.0 7.0 0.00 0.00 0.00 32 1007.5
20260507195352 69 265 2.0 7.0 0.00 0.00 0.00 31 1007.7
20260507194845 69 101 3.0 7.0 0.00 0.00 0.00 33 1007.6
20260507194538 67 228 1.0 6.0 0.00 0.00 0.00 32 1007.5
20260507194339 68 57 1.0 6.0 0.00 0.00 0.00 32 1007.7
20260507193849 68 313 3.0 6.0 0.00 0.00 0.00 31 1007.7
20260507193402 69 219 2.0 6.0 0.00 0.00 0.00 31 1007.7
20260507193059 68 360 1.0 6.0 0.00 0.00 0.00 31 1007.6
20260507192853 69 355 3.0 6.0 0.00 0.00 0.00 30 1007.8
20260507192346 67 211 2.0 8.0 0.00 0.00 0.00 31 1007.8
20260507191838 69 267 4.0 8.0 0.00 0.00 0.00 31 1007.9
20260507191537 69 302 1.0 6.0 0.00 0.00 0.00 32 1007.5
20260507191336 69 161 3.0 10.0 0.00 0.00 0.00 31 1007.9
20260507190851 71 311 3.0 10.0 0.00 0.00 0.00 31 1007.8
20260507190405 70 57 1.0 7.0 0.00 0.00 0.00 33 1007.9
20260507190054 68 324 1.0 7.0 0.00 0.00 0.00 31 1007.8
20260507185853 68 40 4.0 7.0 0.00 0.00 0.00 31 1008.0
20260507185346 70 53 2.0 6.0 0.00 0.00 0.00 31 1008.1
20260507184859 70 5 4.0 7.0 0.00 0.00 0.00 32 1008.1
20260507184550 69 26 2.0 7.0 0.00 0.00 0.00 33 1008.0
20260507184349 68 157 3.0 7.0 0.00 0.00 0.00 32 1008.2
20260507183841 68 58 3.0 5.0 0.00 0.00 0.00 32 1008.2
20260507183354 69 360 3.0 5.0 0.00 0.00 0.00 31 1008.2
20260507183020 68 86 1.0 6.0 0.00 0.00 0.00 33 1007.9
20260507182906 68 360 2.0 6.0 0.00 0.00 0.00 34 1008.3
20260507182358 66 331 4.0 7.0 0.00 0.00 0.00 33 1008.3
20260507181850 67 355 4.0 7.0 0.00 0.00 0.00 33 1008.3
20260507181543 68 291 2.0 6.0 0.00 0.00 0.00 34 1008.1
20260507181342 69 309 4.0 6.0 0.00 0.00 0.00 32 1008.3
20260507180855 70 70 3.0 10.0 0.00 0.00 0.00 34 1008.2
20260507180350 69 53 4.0 10.0 0.00 0.00 0.00 36 1008.3
20260507180044 67 22 3.0 7.0 0.00 0.00 0.00 33 1008.2
20260507175840 68 355 2.0 7.0 0.00 0.00 0.00 33 1008.4
20260507175415 67 142 327.0 327.0 0.00 0.00 0.00 37 1008.3
20260507174910 67 175 3.0 5.0 0.00 0.00 0.00 35 1008.7
20260507174519 68 203 2.0 4.0 0.00 0.00 0.00 37 1008.5
20260507173014 65 241 2.0 6.0 0.00 0.00 0.00 41 1008.8
20260507171615 64 184 3.0 6.0 0.00 0.00 0.00 43 1009.1
20260507170010 62 348 1.0 5.0 0.00 0.00 0.00 42 1009.4
20260507164505 62 320 3.0 5.0 0.00 0.00 0.00 42 1009.8
20260507163003 63 52 3.0 6.0 0.00 0.00 0.00 44 1010.0
20260507161613 62 57 2.0 7.0 0.00 0.00 0.00 45 1010.2
20260507160100 62 331 2.0 5.0 0.00 0.00 0.00 45 1010.4
20260507154556 60 16 2.0 7.0 0.00 0.01 0.00 45 1010.7
20260507153054 60 56 2.0 6.0 0.00 0.01 0.00 47 1010.7
20260507151550 58 15 2.0 7.0 0.00 0.01 0.00 49 1010.9
20260507150049 57 315 0.0 5.0 0.00 0.01 0.00 52 1011.4
20260507144545 55 315 1.0 3.0 0.00 0.01 0.00 53 1011.8
20260507143046 55 61 1.0 8.0 0.00 0.01 0.00 52 1012.0
20260507141548 55 57 2.0 6.0 0.00 0.01 0.00 54 1012.0
20260507140040 54 82 2.0 5.0 0.00 0.01 0.00 56 1012.2
20260507134547 53 75 2.0 4.0 0.00 0.01 0.00 56 1012.3
20260507133038 53 80 3.0 6.0 0.00 0.01 0.00 56 1012.4
20260507131539 52 355 0.0 3.0 0.00 0.01 0.00 56 1012.8
20260507130036 52 54 0.0 2.0 0.00 0.01 0.00 58 1012.9
20260507124535 51 98 0.0 1.0 0.00 0.01 0.00 60 1012.9
20260507123036 51 98 0.0 2.0 0.00 0.01 0.00 63 1012.9
20260507121531 51 98 0.0 2.0 0.00 0.01 0.00 63 1012.7
20260507120029 51 65 0.0 1.0 0.00 0.01 0.00 69 1012.6
20260507114532 50 65 0.0 0.0 0.00 0.01 0.00 72 1012.6
20260507113026 50 65 0.0 0.0 0.00 0.01 0.00 73 1012.5
20260507111525 50 65 0.0 0.0 0.00 0.01 0.00 74 1012.4
20260507110024 50 65 0.0 0.0 0.00 0.01 0.00 72 1012.2
20260507104524 50 65 0.0 1.0 0.00 0.01 0.00 74 1012.2
20260507103024 50 65 0.0 2.0 0.00 0.01 0.00 71 1012.0
20260507101521 51 318 1.0 4.0 0.00 0.01 0.00 74 1011.4
20260507100017 50 340 0.0 1.0 0.00 0.01 0.00 76 1011.5
20260507094516 50 340 0.0 0.0 0.00 0.01 0.00 83 1011.4